Time,TemperatureF,DewpointF,PressureIn,WindDirection,WindDirectionDegrees,WindSpeedMPH,WindSpeedGustMPH,Humidity,HourlyPrecipIn,Conditions,Clouds,dailyrainin,SoftwareType,DateUTC
2013-08-19 00:01:00,63.9,61.5,30.21,NNE,22,0.0,0.0,92,0.00,CLR,,0.00,WeatherDisplay:10.37,2013-08-19 04:01:00,
2013-08-19 00:06:00,63.9,61.5,30.21,NNE,22,0.0,0.0,92,0.00,CLR,,0.00,WeatherDisplay:10.37,2013-08-19 04:06:00,
2013-08-19 00:11:00,63.9,61.5,30.21,NNE,22,0.0,0.0,92,0.00,CLR,,0.00,WeatherDisplay:10.37,2013-08-19 04:11:00,
2013-08-19 00:16:00,64.0,61.7,30.21,NNE,22,0.0,0.0,92,0.00,CLR,,0.00,WeatherDisplay:10.37,2013-08-19 04:16:00,
2013-08-19 00:21:00,64.0,61.7,30.21,NNE,22,0.0,0.0,92,0.00,CLR,,0.00,WeatherDisplay:10.37,2013-08-19 04:21:00,
2013-08-19 00:26:00,64.0,61.7,30.21,NNE,22,0.0,0.0,92,0.00,CLR,,0.00,WeatherDisplay:10.37,2013-08-19 04:26:00,
2013-08-19 00:31:00,64.0,61.7,30.21,NNE,22,0.0,0.0,92,0.00,CLR,,0.00,WeatherDisplay:10.37,2013-08-19 04:31:00,
2013-08-19 00:36:00,63.9,61.5,30.21,NNE,22,0.0,0.0,92,0.00,CLR,,0.00,WeatherDisplay:10.37,2013-08-19 04:36:00,
2013-08-19 00:41:00,63.7,61.6,30.21,NNE,22,0.0,0.0,93,0.00,CLR,,0.00,WeatherDisplay:10.37,2013-08-19 04:41:00,
2013-08-19 00:46:00,63.7,61.6,30.20,NNE,22,0.0,0.0,93,0.00,CLR,,0.00,WeatherDisplay:10.37,2013-08-19 04:46:00,
2013-08-19 00:51:00,63.7,61.6,30.20,NNE,22,0.0,0.0,93,0.00,CLR,,0.00,WeatherDisplay:10.37,2013-08-19 04:51:00,
2013-08-19 00:56:00,63.7,61.6,30.20,NNE,22,0.0,0.0,93,0.00,CLR,,0.00,WeatherDisplay:10.37,2013-08-19 04:56:00,
2013-08-19 01:01:00,63.7,61.6,30.20,NNE,22,0.0,0.0,93,0.00,CLR,,0.00,WeatherDisplay:10.37,2013-08-19 05:01:00,
2013-08-19 01:06:00,63.7,61.6,30.20,NNE,22,0.0,0.0,93,0.00,CLR,,0.00,WeatherDisplay:10.37,2013-08-19 05:06:00,
2013-08-19 01:11:00,63.7,61.6,30.20,NNE,22,0.0,0.0,93,0.00,CLR,,0.00,WeatherDisplay:10.37,2013-08-19 05:11:00,
2013-08-19 01:16:00,63.7,61.6,30.20,NNE,22,0.0,0.0,93,0.00,CLR,,0.00,WeatherDisplay:10.37,2013-08-19 05:16:00,
2013-08-19 01:21:00,63.7,61.6,30.19,NNE,22,0.0,0.0,93,0.00,CLR,,0.00,WeatherDisplay:10.37,2013-08-19 05:21:00,
2013-08-19 01:26:00,63.7,61.6,30.19,NNE,22,0.0,0.0,93,0.00,CLR,,0.00,WeatherDisplay:10.37,2013-08-19 05:26:00,
2013-08-19 01:31:00,63.7,61.6,30.20,NNE,22,0.0,0.0,93,0.00,CLR,,0.00,WeatherDisplay:10.37,2013-08-19 05:31:00,
2013-08-19 01:36:00,63.7,61.6,30.20,NNE,22,0.0,0.0,93,0.00,CLR,,0.00,WeatherDisplay:10.37,2013-08-19 05:36:00,
2013-08-19 01:41:00,63.7,61.6,30.20,NNE,22,0.0,0.0,93,0.00,CLR,,0.00,WeatherDisplay:10.37,2013-08-19 05:41:00,
2013-08-19 01:46:00,63.7,61.6,30.20,NNE,22,0.0,0.0,93,0.00,CLR,,0.00,WeatherDisplay:10.37,2013-08-19 05:46:00,
2013-08-19 01:51:00,63.7,61.6,30.19,NNE,22,0.0,0.0,93,0.00,CLR,,0.00,WeatherDisplay:10.37,2013-08-19 05:51:00,
2013-08-19 01:56:00,63.7,61.6,30.20,NNE,22,0.0,0.0,93,0.00,CLR,,0.00,WeatherDisplay:10.37,2013-08-19 05:56:00,
2013-08-19 02:01:00,63.7,61.6,30.19,NNE,22,0.0,0.0,93,0.00,CLR,,0.00,WeatherDisplay:10.37,2013-08-19 06:01:00,
2013-08-19 02:06:00,63.7,61.6,30.19,NNE,22,0.0,0.0,93,0.00,CLR,,0.00,WeatherDisplay:10.37,2013-08-19 06:06:00,
2013-08-19 02:11:00,63.7,61.6,30.19,NNE,22,0.0,0.0,93,0.00,CLR,,0.00,WeatherDisplay:10.37,2013-08-19 06:11:00,
2013-08-19 02:16:00,63.7,61.6,30.19,NNE,22,0.0,0.0,93,0.00,CLR,,0.00,WeatherDisplay:10.37,2013-08-19 06:16:00,
2013-08-19 02:21:00,63.7,61.6,30.19,NNE,22,0.0,0.0,93,0.00,CLR,,0.00,WeatherDisplay:10.37,2013-08-19 06:21:00,
2013-08-19 02:26:00,63.7,61.6,30.19,NNE,22,0.0,0.0,93,0.00,CLR,,0.00,WeatherDisplay:10.37,2013-08-19 06:26:00,
2013-08-19 02:32:00,63.5,61.4,30.19,NNE,22,0.0,0.0,93,0.00,CLR,,0.00,WeatherDisplay:10.37,2013-08-19 06:32:00,
2013-08-19 02:37:00,63.5,61.4,30.20,NNE,22,0.0,0.0,93,0.00,CLR,,0.00,WeatherDisplay:10.37,2013-08-19 06:37:00,
2013-08-19 02:42:00,63.5,61.4,30.19,NNE,22,0.0,0.0,93,0.00,CLR,,0.00,WeatherDisplay:10.37,2013-08-19 06:42:00,
2013-08-19 02:47:00,63.5,61.4,30.19,NNE,22,0.0,0.0,93,0.00,CLR,,0.00,WeatherDisplay:10.37,2013-08-19 06:47:00,
2013-08-19 02:52:00,63.5,61.4,30.19,NNE,22,0.0,0.0,93,0.00,CLR,,0.00,WeatherDisplay:10.37,2013-08-19 06:52:00,
2013-08-19 02:57:00,63.5,61.4,30.19,NNE,22,0.0,0.0,93,0.00,CLR,,0.00,WeatherDisplay:10.37,2013-08-19 06:57:00,
2013-08-19 03:02:00,63.5,61.4,30.19,NNE,22,0.0,0.0,93,0.00,CLR,,0.00,WeatherDisplay:10.37,2013-08-19 07:02:00,
2013-08-19 03:07:00,63.5,61.4,30.19,NNE,22,0.0,0.0,93,0.00,CLR,,0.00,WeatherDisplay:10.37,2013-08-19 07:07:00,
2013-08-19 03:12:00,63.3,61.3,30.18,NNE,22,0.0,0.0,93,0.00,CLR,,0.00,WeatherDisplay:10.37,2013-08-19 07:12:00,
2013-08-19 03:17:00,63.3,61.3,30.19,NNE,22,0.0,0.0,93,0.00,CLR,,0.00,WeatherDisplay:10.37,2013-08-19 07:17:00,
2013-08-19 03:22:00,63.3,61.3,30.19,NNE,22,0.0,0.0,93,0.00,CLR,,0.00,WeatherDisplay:10.37,2013-08-19 07:22:00,
2013-08-19 03:27:00,63.5,61.4,30.19,NNE,22,0.0,0.0,93,0.00,CLR,,0.00,WeatherDisplay:10.37,2013-08-19 07:27:00,
2013-08-19 03:32:00,63.5,61.4,30.19,NNE,22,0.0,0.0,93,0.00,CLR,,0.00,WeatherDisplay:10.37,2013-08-19 07:32:00,
2013-08-19 03:37:00,63.3,61.3,30.19,NNE,22,0.0,0.0,93,0.00,CLR,,0.00,WeatherDisplay:10.37,2013-08-19 07:37:00,
2013-08-19 03:42:00,63.5,61.4,30.19,NNE,22,0.0,0.0,93,0.00,CLR,,0.00,WeatherDisplay:10.37,2013-08-19 07:42:00,
2013-08-19 03:47:00,63.5,61.4,30.18,NNE,22,0.0,0.0,93,0.00,CLR,,0.00,WeatherDisplay:10.37,2013-08-19 07:47:00,
2013-08-19 03:52:00,63.5,61.4,30.17,NNE,22,0.0,0.0,93,0.00,CLR,,0.00,WeatherDisplay:10.37,2013-08-19 07:52:00,
2013-08-19 03:57:00,63.5,61.4,30.18,NNE,22,0.0,0.0,93,0.00,CLR,,0.00,WeatherDisplay:10.37,2013-08-19 07:57:00,
2013-08-19 04:02:00,63.5,61.4,30.18,NNE,22,0.0,0.0,93,0.00,CLR,,0.00,WeatherDisplay:10.37,2013-08-19 08:02:00,
2013-08-19 04:07:00,63.5,61.4,30.18,NNE,22,0.0,0.0,93,0.00,CLR,,0.00,WeatherDisplay:10.37,2013-08-19 08:07:00,
2013-08-19 04:12:00,63.5,61.4,30.17,NNE,22,0.0,0.0,93,0.00,CLR,,0.00,WeatherDisplay:10.37,2013-08-19 08:12:00,
2013-08-19 04:17:00,63.3,61.3,30.17,NNE,22,0.0,0.0,93,0.00,CLR,,0.00,WeatherDisplay:10.37,2013-08-19 08:17:00,
2013-08-19 04:22:00,63.3,61.3,30.17,NNE,22,0.0,0.0,93,0.00,CLR,,0.00,WeatherDisplay:10.37,2013-08-19 08:22:00,
2013-08-19 04:27:00,63.3,61.3,30.18,NNE,22,0.0,0.0,93,0.00,CLR,,0.00,WeatherDisplay:10.37,2013-08-19 08:27:00,
2013-08-19 04:32:00,63.3,61.3,30.19,NNE,22,0.0,0.0,93,0.00,CLR,,0.00,WeatherDisplay:10.37,2013-08-19 08:32:00,
2013-08-19 04:37:00,63.3,61.3,30.17,NNE,22,0.0,0.0,93,0.00,CLR,,0.00,WeatherDisplay:10.37,2013-08-19 08:37:00,
2013-08-19 04:42:00,63.3,61.3,30.18,NNE,22,0.0,0.0,93,0.00,CLR,,0.00,WeatherDisplay:10.37,2013-08-19 08:42:00,
2013-08-19 04:47:00,63.3,61.3,30.18,NNE,22,0.0,0.0,93,0.00,CLR,,0.00,WeatherDisplay:10.37,2013-08-19 08:47:00,
2013-08-19 04:52:00,63.3,61.3,30.18,NNE,22,0.0,0.0,93,0.00,CLR,,0.00,WeatherDisplay:10.37,2013-08-19 08:52:00,
2013-08-19 04:57:00,63.3,61.3,30.17,NNE,22,0.0,0.0,93,0.00,CLR,,0.00,WeatherDisplay:10.37,2013-08-19 08:57:00,
2013-08-19 05:02:00,63.3,61.3,30.18,NNE,22,0.0,0.0,93,0.00,CLR,,0.00,WeatherDisplay:10.37,2013-08-19 09:02:00,
2013-08-19 05:07:00,63.5,61.7,30.19,NNE,22,0.0,0.0,94,0.00,CLR,,0.00,WeatherDisplay:10.37,2013-08-19 09:07:00,
2013-08-19 05:12:00,63.5,61.7,30.19,NNE,22,0.0,0.0,94,0.00,CLR,,0.00,WeatherDisplay:10.37,2013-08-19 09:12:00,
2013-08-19 05:17:00,63.5,61.7,30.19,NNE,22,0.0,0.0,94,0.00,CLR,,0.00,WeatherDisplay:10.37,2013-08-19 09:17:00,
2013-08-19 05:22:00,63.5,61.7,30.19,NNE,22,0.0,0.0,94,0.00,CLR,,0.00,WeatherDisplay:10.37,2013-08-19 09:22:00,
2013-08-19 05:27:00,63.5,61.7,30.19,NNE,22,0.0,0.0,94,0.00,CLR,,0.00,WeatherDisplay:10.37,2013-08-19 09:27:00,
2013-08-19 05:32:00,63.5,61.7,30.18,NNE,22,0.0,0.0,94,0.00,CLR,,0.00,WeatherDisplay:10.37,2013-08-19 09:32:00,
2013-08-19 05:37:00,63.5,61.7,30.19,NNE,22,0.0,0.0,94,0.00,CLR,,0.00,WeatherDisplay:10.37,2013-08-19 09:37:00,
2013-08-19 05:42:00,63.5,61.7,30.19,NNE,22,0.0,0.0,94,0.00,CLR,,0.00,WeatherDisplay:10.37,2013-08-19 09:42:00,
2013-08-19 05:47:00,63.5,61.7,30.19,NNE,22,0.0,0.0,94,0.00,CLR,,0.00,WeatherDisplay:10.37,2013-08-19 09:47:00,
2013-08-19 05:52:00,63.5,61.7,30.19,NNE,22,0.0,0.0,94,0.00,CLR,,0.00,WeatherDisplay:10.37,2013-08-19 09:52:00,
2013-08-19 05:57:00,63.5,61.7,30.19,NNE,22,0.0,0.0,94,0.00,CLR,,0.00,WeatherDisplay:10.37,2013-08-19 09:57:00,
2013-08-19 06:02:00,63.5,61.7,30.19,NNE,22,0.0,0.0,94,0.00,CLR,,0.00,WeatherDisplay:10.37,2013-08-19 10:02:00,
2013-08-19 06:07:00,63.5,61.7,30.19,NNE,22,0.0,0.0,94,0.00,CLR,,0.00,WeatherDisplay:10.37,2013-08-19 10:07:00,
2013-08-19 06:12:00,63.5,61.7,30.19,NNE,22,0.0,0.0,94,0.00,CLR,,0.00,WeatherDisplay:10.37,2013-08-19 10:12:00,
2013-08-19 06:17:00,63.5,61.7,30.19,NNE,22,0.0,0.0,94,0.00,CLR,,0.00,WeatherDisplay:10.37,2013-08-19 10:17:00,
2013-08-19 06:22:00,63.5,61.7,30.19,NNE,22,0.0,0.0,94,0.00,CLR,,0.00,WeatherDisplay:10.37,2013-08-19 10:22:00,
2013-08-19 06:27:00,63.5,61.7,30.19,NNE,22,0.0,0.0,94,0.00,CLR,,0.00,WeatherDisplay:10.37,2013-08-19 10:27:00,
2013-08-19 06:32:00,63.5,61.7,30.19,NNE,22,0.0,0.0,94,0.00,CLR,,0.00,WeatherDisplay:10.37,2013-08-19 10:32:00,
2013-08-19 06:37:00,63.3,61.6,30.19,NNE,22,0.0,0.0,94,0.00,CLR,,0.00,WeatherDisplay:10.37,2013-08-19 10:37:00,
2013-08-19 06:42:00,63.3,61.6,30.19,NNE,22,0.0,0.0,94,0.00,CLR,,0.00,WeatherDisplay:10.37,2013-08-19 10:42:00,
2013-08-19 06:47:00,63.3,61.6,30.19,NNE,22,0.0,0.0,94,0.00,CLR,,0.00,WeatherDisplay:10.37,2013-08-19 10:47:00,
2013-08-19 06:52:00,63.3,61.6,30.19,NNE,22,0.0,0.0,94,0.00,CLR,,0.00,WeatherDisplay:10.37,2013-08-19 10:52:00,
2013-08-19 06:57:00,63.3,61.6,30.19,NNE,22,0.0,0.0,94,0.00,CLR,,0.00,WeatherDisplay:10.37,2013-08-19 10:57:00,
2013-08-19 07:02:00,63.3,61.6,30.19,NNE,22,0.0,0.0,94,0.00,CLR,,0.00,WeatherDisplay:10.37,2013-08-19 11:02:00,
2013-08-19 07:07:00,63.5,61.7,30.19,NNE,22,0.0,0.0,94,0.00,CLR,,0.00,WeatherDisplay:10.37,2013-08-19 11:07:00,
2013-08-19 07:12:00,63.5,61.7,30.19,NNE,22,0.0,0.0,94,0.00,CLR,,0.00,WeatherDisplay:10.37,2013-08-19 11:12:00,
2013-08-19 07:17:00,63.5,61.7,30.19,NNE,22,0.0,0.0,94,0.00,CLR,,0.00,WeatherDisplay:10.37,2013-08-19 11:17:00,
2013-08-19 07:22:00,63.5,61.7,30.19,NNE,22,0.0,0.0,94,0.00,CLR,,0.00,WeatherDisplay:10.37,2013-08-19 11:22:00,
2013-08-19 07:27:00,63.5,61.7,30.19,NNE,22,0.0,0.0,94,0.00,CLR,,0.00,WeatherDisplay:10.37,2013-08-19 11:27:00,
2013-08-19 07:32:00,63.5,61.7,30.19,NNE,22,0.0,0.0,94,0.00,CLR,,0.00,WeatherDisplay:10.37,2013-08-19 11:32:00,
2013-08-19 07:37:00,63.5,61.7,30.19,NNE,22,0.0,0.0,94,0.00,CLR,,0.00,WeatherDisplay:10.37,2013-08-19 11:37:00,
2013-08-19 07:42:00,63.5,61.7,30.19,NNE,22,0.0,0.0,94,0.00,CLR,,0.00,WeatherDisplay:10.37,2013-08-19 11:42:00,
2013-08-19 07:47:00,63.5,61.7,30.19,NNE,22,0.0,0.0,94,0.00,CLR,,0.00,WeatherDisplay:10.37,2013-08-19 11:47:00,
2013-08-19 07:52:00,63.5,61.7,30.19,NNE,22,0.0,0.0,94,0.00,CLR,,0.00,WeatherDisplay:10.37,2013-08-19 11:52:00,
2013-08-19 07:57:00,63.5,61.7,30.19,NNE,22,0.0,0.0,94,0.00,CLR,,0.00,WeatherDisplay:10.37,2013-08-19 11:57:00,
2013-08-19 08:02:00,63.7,61.9,30.19,NNE,22,0.0,0.0,94,0.00,CLR,,0.00,WeatherDisplay:10.37,2013-08-19 12:02:00,
2013-08-19 08:07:00,63.7,61.9,30.19,NNE,22,0.0,0.0,94,0.00,CLR,,0.00,WeatherDisplay:10.37,2013-08-19 12:07:00,
2013-08-19 08:12:00,63.5,61.7,30.19,NNE,22,0.0,0.0,94,0.00,CLR,,0.00,WeatherDisplay:10.37,2013-08-19 12:12:00,
2013-08-19 08:17:00,63.7,61.9,30.19,NNE,22,0.0,0.0,94,0.00,CLR,,0.00,WeatherDisplay:10.37,2013-08-19 12:17:00,
2013-08-19 08:22:00,63.5,61.7,30.19,NNE,22,0.0,0.0,94,0.00,CLR,,0.00,WeatherDisplay:10.37,2013-08-19 12:22:00,
2013-08-19 08:27:00,63.5,61.7,30.19,NNE,22,0.0,0.0,94,0.00,CLR,,0.00,WeatherDisplay:10.37,2013-08-19 12:27:00,
2013-08-19 08:32:00,63.7,61.9,30.19,NNE,22,0.0,0.0,94,0.00,CLR,,0.00,WeatherDisplay:10.37,2013-08-19 12:32:00,
2013-08-19 08:37:00,63.5,61.7,30.19,NNE,22,0.0,0.0,94,0.00,CLR,,0.00,WeatherDisplay:10.37,2013-08-19 12:37:00,
2013-08-19 08:42:00,63.5,61.7,30.19,NNE,22,0.0,0.0,94,0.00,CLR,,0.00,WeatherDisplay:10.37,2013-08-19 12:42:00,
2013-08-19 08:47:00,63.5,61.7,30.19,NNE,22,0.0,0.0,94,0.00,CLR,,0.00,WeatherDisplay:10.37,2013-08-19 12:47:00,
2013-08-19 08:52:00,63.7,61.9,30.19,NNE,22,0.0,0.0,94,0.00,CLR,,0.00,WeatherDisplay:10.37,2013-08-19 12:52:00,
2013-08-19 08:57:00,63.7,61.9,30.18,NNE,22,0.0,0.0,94,0.00,CLR,,0.00,WeatherDisplay:10.37,2013-08-19 12:57:00,
2013-08-19 09:02:00,63.7,61.9,30.19,NNE,22,0.0,0.0,94,0.00,CLR,,0.00,WeatherDisplay:10.37,2013-08-19 13:02:00,
2013-08-19 09:07:00,63.7,61.9,30.19,NNE,22,0.0,0.0,94,0.00,CLR,,0.00,WeatherDisplay:10.37,2013-08-19 13:07:00,
2013-08-19 09:12:00,63.7,61.9,30.19,NNE,22,0.0,0.0,94,0.00,CLR,,0.00,WeatherDisplay:10.37,2013-08-19 13:12:00,
2013-08-19 09:17:00,63.7,61.9,30.19,NNE,22,0.0,0.0,94,0.00,CLR,,0.00,WeatherDisplay:10.37,2013-08-19 13:17:00,
2013-08-19 09:22:00,63.7,61.9,30.19,NNE,22,0.0,0.0,94,0.00,CLR,,0.00,WeatherDisplay:10.37,2013-08-19 13:22:00,
2013-08-19 09:27:00,63.7,61.9,30.19,NNE,22,0.0,0.0,94,0.00,CLR,,0.00,WeatherDisplay:10.37,2013-08-19 13:27:00,
2013-08-19 09:32:00,63.9,62.1,30.19,NNE,22,0.0,0.0,94,0.00,CLR,,0.00,WeatherDisplay:10.37,2013-08-19 13:32:00,
2013-08-19 09:37:00,64.0,62.3,30.19,NNE,22,0.0,0.0,94,0.00,CLR,,0.00,WeatherDisplay:10.37,2013-08-19 13:37:00,
2013-08-19 09:42:00,64.0,62.3,30.19,NNE,22,0.0,0.0,94,0.00,CLR,,0.00,WeatherDisplay:10.37,2013-08-19 13:42:00,
2013-08-19 09:47:00,64.2,62.5,30.19,NNE,22,0.0,0.0,94,0.00,CLR,,0.00,WeatherDisplay:10.37,2013-08-19 13:47:00,
2013-08-19 09:52:00,64.2,62.5,30.19,NNE,22,0.0,0.0,94,0.00,CLR,,0.00,WeatherDisplay:10.37,2013-08-19 13:52:00,
2013-08-19 09:57:00,64.2,62.5,30.18,NNE,22,0.0,0.0,94,0.00,CLR,,0.00,WeatherDisplay:10.37,2013-08-19 13:57:00,
2013-08-19 10:02:00,64.2,62.5,30.19,NNE,22,0.0,0.0,94,0.00,CLR,,0.00,WeatherDisplay:10.37,2013-08-19 14:02:00,
2013-08-19 10:07:00,64.2,62.5,30.19,NNE,22,0.0,0.0,94,0.00,CLR,,0.00,WeatherDisplay:10.37,2013-08-19 14:07:00,
2013-08-19 10:12:00,64.2,62.5,30.19,NNE,22,0.0,0.0,94,0.00,CLR,,0.00,WeatherDisplay:10.37,2013-08-19 14:12:00,
2013-08-19 10:17:00,64.2,62.5,30.19,NNE,22,0.0,0.0,94,0.00,CLR,,0.00,WeatherDisplay:10.37,2013-08-19 14:17:00,
2013-08-19 10:22:00,64.2,62.5,30.19,NNE,22,0.0,0.0,94,0.00,CLR,,0.00,WeatherDisplay:10.37,2013-08-19 14:22:00,
2013-08-19 10:27:00,64.2,62.5,30.19,NNE,22,0.0,0.0,94,0.00,CLR,,0.00,WeatherDisplay:10.37,2013-08-19 14:27:00,
2013-08-19 10:32:00,64.2,62.5,30.19,NNE,22,0.0,0.0,94,0.00,CLR,,0.00,WeatherDisplay:10.37,2013-08-19 14:32:00,
2013-08-19 10:37:00,64.6,62.8,30.19,NNE,22,0.0,0.0,94,0.00,CLR,,0.00,WeatherDisplay:10.37,2013-08-19 14:37:00,
2013-08-19 10:42:00,64.6,62.8,30.19,NNE,22,0.0,0.0,94,0.00,CLR,,0.00,WeatherDisplay:10.37,2013-08-19 14:42:00,
2013-08-19 10:47:00,64.6,62.8,30.19,NNE,22,0.0,0.0,94,0.00,CLR,,0.00,WeatherDisplay:10.37,2013-08-19 14:47:00,
2013-08-19 10:52:00,64.6,62.8,30.19,NNE,22,0.0,0.0,94,0.00,CLR,,0.00,WeatherDisplay:10.37,2013-08-19 14:52:00,
2013-08-19 10:57:00,64.6,62.8,30.20,NNE,22,0.0,0.0,94,0.00,CLR,,0.00,WeatherDisplay:10.37,2013-08-19 14:57:00,
2013-08-19 11:02:00,64.6,62.8,30.19,NNE,22,0.0,0.0,94,0.00,CLR,,0.00,WeatherDisplay:10.37,2013-08-19 15:02:00,
2013-08-19 11:07:00,64.6,62.8,30.20,NNE,24,0.0,0.0,94,0.00,CLR,,0.00,WeatherDisplay:10.37,2013-08-19 15:07:00,
2013-08-19 11:12:00,64.6,62.8,30.20,NNE,24,0.0,0.0,94,0.00,CLR,,0.00,WeatherDisplay:10.37,2013-08-19 15:12:00,
2013-08-19 11:17:00,64.6,62.8,30.20,NNE,24,0.0,0.0,94,0.00,CLR,,0.00,WeatherDisplay:10.37,2013-08-19 15:17:00,
2013-08-19 11:22:00,64.6,62.8,30.20,NNE,24,0.0,0.0,94,0.00,CLR,,0.00,WeatherDisplay:10.37,2013-08-19 15:22:00,
2013-08-19 11:27:00,64.6,62.8,30.20,NNE,24,0.0,0.0,94,0.00,CLR,,0.00,WeatherDisplay:10.37,2013-08-19 15:27:00,
2013-08-19 11:32:00,64.6,62.8,30.20,NNE,24,0.0,0.0,94,0.00,CLR,,0.00,WeatherDisplay:10.37,2013-08-19 15:32:00,
2013-08-19 11:37:00,64.6,62.8,30.20,NNE,22,0.0,0.0,94,0.00,CLR,,0.00,WeatherDisplay:10.37,2013-08-19 15:37:00,
2013-08-19 11:42:00,65.8,64.1,30.20,NNE,22,0.0,0.0,94,0.00,CLR,,0.00,WeatherDisplay:10.37,2013-08-19 15:42:00,
2013-08-19 11:47:00,66.2,64.7,30.20,NNE,22,0.0,0.0,95,0.00,CLR,,0.00,WeatherDisplay:10.37,2013-08-19 15:47:00,
2013-08-19 11:52:00,66.4,64.9,30.20,NNE,22,0.0,0.0,95,0.00,CLR,,0.00,WeatherDisplay:10.37,2013-08-19 15:52:00,
2013-08-19 11:57:00,66.4,64.6,30.20,NNE,22,0.0,0.0,94,0.00,CLR,,0.00,WeatherDisplay:10.37,2013-08-19 15:57:00,
2013-08-19 12:02:00,66.6,64.8,30.20,NNE,22,0.0,0.0,94,0.00,CLR,,0.00,WeatherDisplay:10.37,2013-08-19 16:02:00,
2013-08-19 12:07:00,66.7,65.0,30.20,NNE,22,0.0,0.0,94,0.00,CLR,,0.00,WeatherDisplay:10.37,2013-08-19 16:07:00,
2013-08-19 12:12:00,66.9,65.4,30.20,NNE,22,0.0,0.0,95,0.00,CLR,,0.00,WeatherDisplay:10.37,2013-08-19 16:12:00,
2013-08-19 12:17:00,67.3,65.8,30.20,NNE,22,0.0,0.0,95,0.00,CLR,,0.00,WeatherDisplay:10.37,2013-08-19 16:17:00,
2013-08-19 12:22:00,67.3,65.5,30.20,NNE,22,0.0,0.0,94,0.00,CLR,,0.00,WeatherDisplay:10.37,2013-08-19 16:22:00,
2013-08-19 12:27:00,67.1,65.3,30.20,NNE,22,0.0,0.0,94,0.00,CLR,,0.00,WeatherDisplay:10.37,2013-08-19 16:27:00,
2013-08-19 12:32:00,66.9,65.1,30.19,NNE,22,0.0,0.0,94,0.00,CLR,,0.00,WeatherDisplay:10.37,2013-08-19 16:32:00,
2013-08-19 12:37:00,66.4,64.6,30.20,NNE,22,0.0,0.0,94,0.00,CLR,,0.00,WeatherDisplay:10.37,2013-08-19 16:37:00,
2013-08-19 12:42:00,66.4,64.6,30.19,NNE,22,0.0,0.0,94,0.00,CLR,,0.00,WeatherDisplay:10.37,2013-08-19 16:42:00,
2013-08-19 12:47:00,66.0,64.2,30.19,NNE,22,0.0,0.0,94,0.00,CLR,,0.00,WeatherDisplay:10.37,2013-08-19 16:47:00,
2013-08-19 12:52:00,66.0,64.2,30.20,NNE,22,0.0,0.0,94,0.00,CLR,,0.00,WeatherDisplay:10.37,2013-08-19 16:52:00,
2013-08-19 12:57:00,66.0,64.2,30.19,NNE,22,0.0,0.0,94,0.00,CLR,,0.00,WeatherDisplay:10.37,2013-08-19 16:57:00,
2013-08-19 13:02:00,66.4,64.6,30.19,NNE,22,0.0,0.0,94,0.00,CLR,,0.00,WeatherDisplay:10.37,2013-08-19 17:02:00,
2013-08-19 13:07:00,66.7,65.0,30.19,NNE,22,0.0,0.0,94,0.00,CLR,,0.00,WeatherDisplay:10.37,2013-08-19 17:07:00,
2013-08-19 13:12:00,67.1,65.3,30.19,NNE,22,0.0,0.0,94,0.00,CLR,,0.00,WeatherDisplay:10.37,2013-08-19 17:12:00,
2013-08-19 13:17:00,67.6,65.9,30.19,NNE,22,0.0,0.0,94,0.00,CLR,,0.00,WeatherDisplay:10.37,2013-08-19 17:17:00,
2013-08-19 13:22:00,67.8,66.0,30.19,NNE,22,0.0,0.0,94,0.00,CLR,,0.00,WeatherDisplay:10.37,2013-08-19 17:22:00,
2013-08-19 13:27:00,68.4,66.6,30.19,NNE,22,0.0,0.0,94,0.00,CLR,,0.00,WeatherDisplay:10.37,2013-08-19 17:27:00,
2013-08-19 13:33:00,68.7,67.2,30.19,NNE,22,0.0,0.0,95,0.00,CLR,,0.00,WeatherDisplay:10.37,2013-08-19 17:33:00,
2013-08-19 13:38:00,69.3,67.8,30.19,NNE,22,0.0,0.0,95,0.00,CLR,,0.00,WeatherDisplay:10.37,2013-08-19 17:38:00,
2013-08-19 13:43:00,69.6,67.8,30.18,NNE,22,0.0,0.0,94,0.00,CLR,,0.00,WeatherDisplay:10.37,2013-08-19 17:43:00,
2013-08-19 13:48:00,69.6,67.8,30.19,NNE,22,0.0,0.0,94,0.00,CLR,,0.00,WeatherDisplay:10.37,2013-08-19 17:48:00,
2013-08-19 13:53:00,69.6,67.8,30.18,NNE,22,0.0,0.0,94,0.00,CLR,,0.00,WeatherDisplay:10.37,2013-08-19 17:53:00,
2013-08-19 13:58:00,69.3,67.1,30.19,NNE,22,0.0,0.0,93,0.00,CLR,,0.00,WeatherDisplay:10.37,2013-08-19 17:58:00,
2013-08-19 14:03:00,69.1,67.0,30.18,NNE,22,0.0,0.0,93,0.00,CLR,,0.00,WeatherDisplay:10.37,2013-08-19 18:03:00,
2013-08-19 14:08:00,68.7,66.3,30.18,NNE,22,0.0,0.0,92,0.00,CLR,,0.00,WeatherDisplay:10.37,2013-08-19 18:08:00,
2013-08-19 14:13:00,68.5,66.1,30.18,NNE,22,0.0,0.0,92,0.00,CLR,,0.00,WeatherDisplay:10.37,2013-08-19 18:13:00,
2013-08-19 14:18:00,68.5,66.1,30.18,NNE,22,0.0,0.0,92,0.00,CLR,,0.00,WeatherDisplay:10.37,2013-08-19 18:18:00,
2013-08-19 14:23:00,68.5,66.1,30.18,NNE,22,0.0,0.0,92,0.00,CLR,,0.00,WeatherDisplay:10.37,2013-08-19 18:23:00,
2013-08-19 14:28:00,68.5,66.1,30.18,NNE,22,0.0,0.0,92,0.00,CLR,,0.00,WeatherDisplay:10.37,2013-08-19 18:28:00,
2013-08-19 14:33:00,68.7,66.3,30.18,NNE,22,0.0,0.0,92,0.00,CLR,,0.00,WeatherDisplay:10.37,2013-08-19 18:33:00,
2013-08-19 14:38:00,68.7,66.3,30.18,NNE,22,0.0,0.0,92,0.00,CLR,,0.00,WeatherDisplay:10.37,2013-08-19 18:38:00,
2013-08-19 14:43:00,68.7,66.3,30.18,NNE,22,0.0,0.0,92,0.00,CLR,,0.00,WeatherDisplay:10.37,2013-08-19 18:43:00,
2013-08-19 14:48:00,68.7,66.3,30.18,NNE,22,0.0,0.0,92,0.00,CLR,,0.00,WeatherDisplay:10.37,2013-08-19 18:48:00,
2013-08-19 14:53:00,68.9,66.2,30.18,NNE,22,0.0,0.0,91,0.00,CLR,,0.00,WeatherDisplay:10.37,2013-08-19 18:53:00,
2013-08-19 14:58:00,69.1,66.3,30.18,NNE,22,0.0,0.0,91,0.00,CLR,,0.00,WeatherDisplay:10.37,2013-08-19 18:58:00,
2013-08-19 15:03:00,69.3,66.5,30.17,NNE,22,0.0,0.0,91,0.00,CLR,,0.00,WeatherDisplay:10.37,2013-08-19 19:03:00,
2013-08-19 15:08:00,70.0,67.2,30.17,NNE,22,0.0,0.0,91,0.00,CLR,,0.00,WeatherDisplay:10.37,2013-08-19 19:08:00,
2013-08-19 15:13:00,70.7,67.6,30.17,NNE,22,0.0,0.0,90,0.00,CLR,,0.00,WeatherDisplay:10.37,2013-08-19 19:13:00,
2013-08-19 15:18:00,71.2,68.2,30.16,NNE,22,0.0,0.0,90,0.00,CLR,,0.00,WeatherDisplay:10.37,2013-08-19 19:18:00,
2013-08-19 15:23:00,72.1,68.1,30.16,NNE,22,0.0,0.0,87,0.00,CLR,,0.00,WeatherDisplay:10.37,2013-08-19 19:23:00,
2013-08-19 15:28:00,72.3,68.2,30.16,NNE,22,0.0,0.0,87,0.00,CLR,,0.00,WeatherDisplay:10.37,2013-08-19 19:28:00,
2013-08-19 15:33:00,72.7,68.6,30.16,NNE,22,0.0,0.0,87,0.00,CLR,,0.00,WeatherDisplay:10.37,2013-08-19 19:33:00,
2013-08-19 15:38:00,72.3,67.9,30.16,NNE,22,0.0,0.0,86,0.00,CLR,,0.00,WeatherDisplay:10.37,2013-08-19 19:38:00,
2013-08-19 15:43:00,72.3,67.9,30.16,NNE,22,0.0,0.0,86,0.00,CLR,,0.00,WeatherDisplay:10.37,2013-08-19 19:43:00,
2013-08-19 15:48:00,72.1,67.7,30.16,NNE,22,0.0,0.0,86,0.00,CLR,,0.00,WeatherDisplay:10.37,2013-08-19 19:48:00,
2013-08-19 15:53:00,72.1,67.7,30.16,NNE,22,0.0,0.0,86,0.00,CLR,,0.00,WeatherDisplay:10.37,2013-08-19 19:53:00,
2013-08-19 15:58:00,72.0,67.5,30.16,NNE,22,0.0,0.0,86,0.00,CLR,,0.00,WeatherDisplay:10.37,2013-08-19 19:58:00,
2013-08-19 16:03:00,71.8,67.0,30.16,NNE,22,0.0,0.0,85,0.00,CLR,,0.00,WeatherDisplay:10.37,2013-08-19 20:03:00,
2013-08-19 16:08:00,71.2,66.5,30.16,NNE,22,0.0,0.0,85,0.00,CLR,,0.00,WeatherDisplay:10.37,2013-08-19 20:08:00,
2013-08-19 16:13:00,70.9,66.5,30.16,NNE,22,0.0,0.0,86,0.00,CLR,,0.00,WeatherDisplay:10.37,2013-08-19 20:13:00,
2013-08-19 16:18:00,70.7,66.3,30.16,NNE,22,0.0,0.0,86,0.00,CLR,,0.00,WeatherDisplay:10.37,2013-08-19 20:18:00,
2013-08-19 16:23:00,70.7,66.3,30.16,NNE,22,0.0,0.0,86,0.00,CLR,,0.00,WeatherDisplay:10.37,2013-08-19 20:23:00,
2013-08-19 16:28:00,71.1,67.0,30.16,NNE,22,0.0,0.0,87,0.00,CLR,,0.00,WeatherDisplay:10.37,2013-08-19 20:28:00,
2013-08-19 16:33:00,71.4,67.0,30.16,NNE,22,0.0,0.0,86,0.00,CLR,,0.00,WeatherDisplay:10.37,2013-08-19 20:33:00,
2013-08-19 16:38:00,72.5,68.4,30.16,NNE,22,0.0,0.0,87,0.00,CLR,,0.00,WeatherDisplay:10.37,2013-08-19 20:38:00,
2013-08-19 16:43:00,73.2,68.8,30.16,NNE,22,0.0,0.0,86,0.00,CLR,,0.00,WeatherDisplay:10.37,2013-08-19 20:43:00,
2013-08-19 16:48:00,73.4,68.3,30.15,NNE,22,0.0,0.0,84,0.00,CLR,,0.00,WeatherDisplay:10.37,2013-08-19 20:48:00,
2013-08-19 16:53:00,73.0,67.6,30.16,NNE,22,0.0,0.0,83,0.00,CLR,,0.00,WeatherDisplay:10.37,2013-08-19 20:53:00,
2013-08-19 16:58:00,72.3,66.9,30.16,NNE,22,0.0,0.0,83,0.00,CLR,,0.00,WeatherDisplay:10.37,2013-08-19 20:58:00,
2013-08-19 17:03:00,71.8,66.3,30.15,NNE,22,0.0,0.0,83,0.00,CLR,,0.00,WeatherDisplay:10.37,2013-08-19 21:03:00,
2013-08-19 17:08:00,71.4,66.0,30.15,NNE,22,0.0,0.0,83,0.00,CLR,,0.00,WeatherDisplay:10.37,2013-08-19 21:08:00,
2013-08-19 17:13:00,71.4,66.3,30.15,NNE,22,0.0,0.0,84,0.00,CLR,,0.00,WeatherDisplay:10.37,2013-08-19 21:13:00,
2013-08-19 17:18:00,72.0,66.9,30.15,NNE,22,0.0,0.0,84,0.00,CLR,,0.00,WeatherDisplay:10.37,2013-08-19 21:18:00,
2013-08-19 17:23:00,72.0,66.9,30.15,NNE,22,0.0,0.0,84,0.00,CLR,,0.00,WeatherDisplay:10.37,2013-08-19 21:23:00,
2013-08-19 17:28:00,72.0,66.5,30.15,NNE,22,0.0,0.0,83,0.00,CLR,,0.00,WeatherDisplay:10.37,2013-08-19 21:28:00,
2013-08-19 17:33:00,71.4,66.0,30.15,NNE,22,0.0,0.0,83,0.00,CLR,,0.00,WeatherDisplay:10.37,2013-08-19 21:33:00,
2013-08-19 17:38:00,71.4,66.0,30.15,NNE,22,0.0,0.0,83,0.00,CLR,,0.00,WeatherDisplay:10.37,2013-08-19 21:38:00,
2013-08-19 17:43:00,71.2,65.8,30.15,NNE,22,0.0,0.0,83,0.00,CLR,,0.00,WeatherDisplay:10.37,2013-08-19 21:43:00,
2013-08-19 17:48:00,70.9,65.8,30.15,NNE,22,0.0,0.0,84,0.00,CLR,,0.00,WeatherDisplay:10.37,2013-08-19 21:48:00,
2013-08-19 17:53:00,70.9,65.8,30.15,NNE,22,0.0,0.0,84,0.00,CLR,,0.00,WeatherDisplay:10.37,2013-08-19 21:53:00,
2013-08-19 17:58:00,70.7,66.0,30.15,NNE,22,0.0,0.0,85,0.00,CLR,,0.00,WeatherDisplay:10.37,2013-08-19 21:58:00,
2013-08-19 18:03:00,70.3,65.6,30.15,NNE,22,0.0,0.0,85,0.00,CLR,,0.00,WeatherDisplay:10.37,2013-08-19 22:03:00,
2013-08-19 18:08:00,70.3,66.0,30.15,NNE,22,0.0,0.0,86,0.00,CLR,,0.00,WeatherDisplay:10.37,2013-08-19 22:08:00,
2013-08-19 18:13:00,70.3,66.0,30.15,NNE,22,0.0,0.0,86,0.00,CLR,,0.00,WeatherDisplay:10.37,2013-08-19 22:13:00,
2013-08-19 18:18:00,70.3,66.0,30.15,NNE,22,0.0,0.0,86,0.00,CLR,,0.00,WeatherDisplay:10.37,2013-08-19 22:18:00,
2013-08-19 18:23:00,70.3,66.0,30.15,NNE,22,0.0,0.0,86,0.00,CLR,,0.00,WeatherDisplay:10.37,2013-08-19 22:23:00,
2013-08-19 18:28:00,70.3,66.0,30.15,NNE,22,0.0,0.0,86,0.00,CLR,,0.00,WeatherDisplay:10.37,2013-08-19 22:28:00,
2013-08-19 18:33:00,70.3,66.0,30.15,NNE,22,0.0,0.0,86,0.00,CLR,,0.00,WeatherDisplay:10.37,2013-08-19 22:33:00,
2013-08-19 18:38:00,70.3,66.0,30.15,NNE,22,0.0,0.0,86,0.00,CLR,,0.00,WeatherDisplay:10.37,2013-08-19 22:38:00,
2013-08-19 18:43:00,70.3,66.0,30.15,NNE,22,0.0,0.0,86,0.00,CLR,,0.00,WeatherDisplay:10.37,2013-08-19 22:43:00,
2013-08-19 18:48:00,70.5,66.5,30.14,NNE,22,0.0,0.0,87,0.00,CLR,,0.00,WeatherDisplay:10.37,2013-08-19 22:48:00,
2013-08-19 18:53:00,70.5,66.1,30.14,NNE,22,0.0,0.0,86,0.00,CLR,,0.00,WeatherDisplay:10.37,2013-08-19 22:53:00,
2013-08-19 18:58:00,70.5,65.8,30.14,NNE,22,0.0,0.0,85,0.00,CLR,,0.00,WeatherDisplay:10.37,2013-08-19 22:58:00,
2013-08-19 19:03:00,70.5,65.8,30.14,NNE,22,0.0,0.0,85,0.00,CLR,,0.00,WeatherDisplay:10.37,2013-08-19 23:03:00,
2013-08-19 19:08:00,70.5,65.8,30.14,NNE,22,0.0,0.0,85,0.00,CLR,,0.00,WeatherDisplay:10.37,2013-08-19 23:08:00,
2013-08-19 19:13:00,70.5,65.8,30.14,NNE,22,0.0,0.0,85,0.00,CLR,,0.00,WeatherDisplay:10.37,2013-08-19 23:13:00,
2013-08-19 19:18:00,70.5,65.8,30.15,NNE,22,0.0,0.0,85,0.00,CLR,,0.00,WeatherDisplay:10.37,2013-08-19 23:18:00,
2013-08-19 19:23:00,70.5,65.8,30.15,NNE,22,0.0,0.0,85,0.00,CLR,,0.00,WeatherDisplay:10.37,2013-08-19 23:23:00,
2013-08-19 19:28:00,70.5,65.8,30.15,NNE,22,0.0,0.0,85,0.00,CLR,,0.00,WeatherDisplay:10.37,2013-08-19 23:28:00,
2013-08-19 19:33:00,70.3,65.3,30.15,NNE,22,0.0,0.0,84,0.00,CLR,,0.00,WeatherDisplay:10.37,2013-08-19 23:33:00,
2013-08-19 19:38:00,70.2,65.1,30.15,NNE,22,0.0,0.0,84,0.00,CLR,,0.00,WeatherDisplay:10.37,2013-08-19 23:38:00,
2013-08-19 19:43:00,70.2,65.1,30.15,NNE,22,0.0,0.0,84,0.00,CLR,,0.00,WeatherDisplay:10.37,2013-08-19 23:43:00,
2013-08-19 19:48:00,69.8,64.7,30.15,NNE,22,0.0,0.0,84,0.00,CLR,,0.00,WeatherDisplay:10.37,2013-08-19 23:48:00,
2013-08-19 19:53:00,69.8,64.7,30.15,NNE,22,0.0,0.0,84,0.00,CLR,,0.00,WeatherDisplay:10.37,2013-08-19 23:53:00,
2013-08-19 19:58:00,69.4,64.7,30.15,NNE,22,0.0,0.0,85,0.00,CLR,,0.00,WeatherDisplay:10.37,2013-08-19 23:58:00,
2013-08-19 20:03:00,69.1,64.4,30.15,NNE,22,0.0,0.0,85,0.00,CLR,,0.00,WeatherDisplay:10.37,2013-08-20 00:03:00,
2013-08-19 20:08:00,68.9,64.2,30.15,NNE,22,0.0,0.0,85,0.00,CLR,,0.00,WeatherDisplay:10.37,2013-08-20 00:08:00,
2013-08-19 20:13:00,68.5,63.8,30.15,NNE,22,0.0,0.0,85,0.00,CLR,,0.00,WeatherDisplay:10.37,2013-08-20 00:13:00,
2013-08-19 20:18:00,68.2,63.8,30.16,NNE,22,0.0,0.0,86,0.00,CLR,,0.00,WeatherDisplay:10.37,2013-08-20 00:18:00,
2013-08-19 20:23:00,67.8,63.5,30.16,NNE,22,0.0,0.0,86,0.00,CLR,,0.00,WeatherDisplay:10.37,2013-08-20 00:23:00,
2013-08-19 20:28:00,67.6,63.6,30.16,NNE,22,0.0,0.0,87,0.00,CLR,,0.00,WeatherDisplay:10.37,2013-08-20 00:28:00,
2013-08-19 20:33:00,67.3,63.3,30.16,NNE,22,0.0,0.0,87,0.00,CLR,,0.00,WeatherDisplay:10.37,2013-08-20 00:33:00,
2013-08-19 20:38:00,67.1,63.1,30.16,NNE,22,0.0,0.0,87,0.00,CLR,,0.00,WeatherDisplay:10.37,2013-08-20 00:38:00,
2013-08-19 20:43:00,66.7,63.1,30.16,NNE,22,0.0,0.0,88,0.00,CLR,,0.00,WeatherDisplay:10.37,2013-08-20 00:43:00,
2013-08-19 20:48:00,66.7,63.1,30.16,NNE,22,0.0,0.0,88,0.00,CLR,,0.00,WeatherDisplay:10.37,2013-08-20 00:48:00,
2013-08-19 20:54:00,66.4,62.7,30.16,NNE,22,0.0,0.0,88,0.00,CLR,,0.00,WeatherDisplay:10.37,2013-08-20 00:54:00,
2013-08-19 20:59:00,66.0,62.4,30.16,NNE,22,0.0,0.0,88,0.00,CLR,,0.00,WeatherDisplay:10.37,2013-08-20 00:59:00,
2013-08-19 21:04:00,66.0,62.7,30.16,NNE,22,0.0,0.0,89,0.00,CLR,,0.00,WeatherDisplay:10.37,2013-08-20 01:04:00,
2013-08-19 21:09:00,65.8,62.5,30.16,NNE,22,0.0,0.0,89,0.00,CLR,,0.00,WeatherDisplay:10.37,2013-08-20 01:09:00,
2013-08-19 21:14:00,65.8,62.5,30.16,NNE,22,0.0,0.0,89,0.00,CLR,,0.00,WeatherDisplay:10.37,2013-08-20 01:14:00,
2013-08-19 21:19:00,65.5,62.2,30.16,NNE,22,0.0,0.0,89,0.00,CLR,,0.00,WeatherDisplay:10.37,2013-08-20 01:19:00,
2013-08-19 21:24:00,65.5,62.5,30.17,NNE,22,0.0,0.0,90,0.00,CLR,,0.00,WeatherDisplay:10.37,2013-08-20 01:24:00,
2013-08-19 21:29:00,65.1,62.1,30.17,NNE,22,0.0,0.0,90,0.00,CLR,,0.00,WeatherDisplay:10.37,2013-08-20 01:29:00,
2013-08-19 21:34:00,65.1,62.1,30.17,NNE,22,0.0,0.0,90,0.00,CLR,,0.00,WeatherDisplay:10.37,2013-08-20 01:34:00,
2013-08-19 21:39:00,64.9,61.9,30.18,NNE,22,0.0,0.0,90,0.00,CLR,,0.00,WeatherDisplay:10.37,2013-08-20 01:39:00,